Location: De Greiden
(52.9496°N, 5.9137°E)
Time: 23:53:11
(UTC+00:00)

CZ-4B R/B - Pass Details

Date: 24 January 2021
Orbit: 387 x 458 km, 97.6° (Epoch: 01 March)

Event Time Altitude Azimuth Distance (km) Brightness Sun altitude
Exits shadow 18:21:03 12° 0° (N) 1,456 3.9 -19.9°
Maximum altitude 18:23:57 42° 291° (WNW) 647 2.6 -20.3°
Drops below altitude 10° 18:27:05 10° 219° (SW) 1,534 4.7 -20.8°
Sets 18:29:06 0° 212° (SSW) 2,382 5.6 -21.1°
